Main page
METAR-TAF:

METAR-TAF

Airports :

Syros, Greece

Syros Island National Airport

latitude: 37-25-16N, longitude: 024-56-54E, elevation: 73 m

Current weather observation

The report was made 24 minutes ago, at 22:50 UTC
Wind 5 kt from the Southwest
Temperature 12°C
Humidity 71%
Pressure 1016 hPa

METAR: LGSO 192250Z AUTO 22005KT //// // ////// 12/07 Q1016 RE//

Time: 01:14 (23:14 UTC)


TAF: missing

Weather observations and forecasts of more than 4000 airports (METAR and TAF reports).

The available stations are represented by yellow and red dots on the map.

Hover mouse over dot to see the name of the station.

Then click to see weather observations and forecasts.

To change the map : click on the green buttons with a black cross to zoom in, on the green button with a dash to zoom out, or on the green arrows for adjacent maps.


METAR-TAF: